Time,TemperatureF,DewpointF,PressureIn,WindDirection,WindDirectionDegrees,WindSpeedMPH,WindSpeedGustMPH,Humidity,HourlyPrecipIn,Conditions,Clouds,dailyrainin,SolarRadiationWatts/m^2,SoftwareType,DateUTC
2016-02-12 00:04:00,57.0,48.5,30.18,NW,308,1.0,4.0,73,0.00,CLR,CLR,0.00,0.0,WeatherDisplay:10.37,2016-02-12 08:04:00,
2016-02-12 00:09:00,56.7,48.5,30.17,WNW,284,0.4,1.0,74,0.00,CLR,,0.00,0.0,WeatherDisplay:10.37,2016-02-12 08:09:00,
2016-02-12 00:14:00,56.4,48.2,30.17,WNW,284,1.1,2.3,74,0.00,CLR,,0.00,0.0,WeatherDisplay:10.37,2016-02-12 08:14:00,
2016-02-12 00:19:00,56.1,47.9,30.17,WNW,284,0.8,1.2,74,0.00,CLR,,0.00,0.0,WeatherDisplay:10.37,2016-02-12 08:19:00,
2016-02-12 00:29:00,55.9,47.4,30.18,WNW,282,1.5,2.3,73,0.00,CLR,,0.00,0.0,WeatherDisplay:10.37,2016-02-12 08:29:00,
2016-02-12 00:34:00,55.9,47.4,30.17,West,268,0.3,1.2,73,0.00,CLR,,0.00,0.0,WeatherDisplay:10.37,2016-02-12 08:34:00,
2016-02-12 00:39:00,55.8,46.9,30.18,West,269,0.8,2.3,72,0.00,CLR,,0.00,0.0,WeatherDisplay:10.37,2016-02-12 08:39:00,
2016-02-12 00:44:00,55.8,45.8,30.18,West,266,1.1,3.5,69,0.00,CLR,,0.00,0.0,WeatherDisplay:10.37,2016-02-12 08:44:00,
2016-02-12 00:49:00,55.9,44.7,30.18,WSW,256,2.5,3.5,66,0.00,CLR,,0.00,0.0,WeatherDisplay:10.37,2016-02-12 08:49:00,
2016-02-12 00:54:00,56.1,44.9,30.18,West,262,2.0,7.0,66,0.00,CLR,CLR,0.00,0.0,WeatherDisplay:10.37,2016-02-12 08:54:00,
2016-02-12 00:59:00,56.3,44.7,30.18,West,262,5.0,7.0,65,0.00,CLR,CLR,0.00,0.0,WeatherDisplay:10.37,2016-02-12 08:59:00,
2016-02-12 01:04:00,56.6,44.6,30.18,West,264,3.0,7.0,64,0.00,CLR,CLR,0.00,0.0,WeatherDisplay:10.37,2016-02-12 09:04:00,
2016-02-12 01:09:00,56.9,44.8,30.18,West,274,2.8,4.6,64,0.00,CLR,,0.00,0.0,WeatherDisplay:10.37,2016-02-12 09:09:00,
2016-02-12 01:14:00,57.0,44.9,30.18,West,275,2.7,3.5,64,0.00,CLR,,0.00,0.0,WeatherDisplay:10.37,2016-02-12 09:14:00,
2016-02-12 01:19:00,57.0,44.9,30.18,WSW,257,2.5,4.6,64,0.00,CLR,,0.00,0.0,WeatherDisplay:10.37,2016-02-12 09:19:00,
2016-02-12 01:24:00,57.0,44.9,30.18,WSW,258,1.9,4.6,64,0.00,CLR,,0.00,0.0,WeatherDisplay:10.37,2016-02-12 09:24:00,
2016-02-12 01:29:00,57.0,44.9,30.17,WSW,258,2.7,3.5,64,0.00,CLR,,0.00,0.0,WeatherDisplay:10.37,2016-02-12 09:29:00,
2016-02-12 01:34:00,56.9,44.8,30.17,WSW,258,2.0,5.0,64,0.00,CLR,CLR,0.00,0.0,WeatherDisplay:10.37,2016-02-12 09:34:00,
2016-02-12 01:39:00,56.8,44.7,30.18,WSW,257,3.1,4.6,64,0.00,CLR,,0.00,0.0,WeatherDisplay:10.37,2016-02-12 09:39:00,
2016-02-12 01:44:00,56.7,44.7,30.17,WSW,258,2.0,3.0,64,0.00,CLR,CLR,0.00,0.0,WeatherDisplay:10.37,2016-02-12 09:44:00,
2016-02-12 01:49:00,56.6,44.6,30.17,WSW,257,2.1,2.3,64,0.00,CLR,,0.00,0.0,WeatherDisplay:10.37,2016-02-12 09:49:00,
2016-02-12 01:54:00,56.5,44.5,30.17,WSW,257,0.0,3.0,64,0.00,CLR,CLR,0.00,0.0,WeatherDisplay:10.37,2016-02-12 09:54:00,
2016-02-12 01:59:00,56.4,44.3,30.17,WSW,257,0.0,2.0,64,0.00,CLR,CLR,0.00,0.0,WeatherDisplay:10.37,2016-02-12 09:59:00,
2016-02-12 02:04:00,56.2,44.2,30.17,WSW,257,0.0,0.0,64,0.00,CLR,CLR,0.00,0.0,WeatherDisplay:10.37,2016-02-12 10:04:00,
2016-02-12 02:09:00,56.0,44.0,30.18,WSW,257,0.9,1.2,64,0.00,CLR,,0.00,0.0,WeatherDisplay:10.37,2016-02-12 10:09:00,
2016-02-12 02:14:00,55.9,44.3,30.18,WSW,257,0.6,1.2,65,0.00,CLR,,0.00,0.0,WeatherDisplay:10.37,2016-02-12 10:14:00,
2016-02-12 02:19:00,55.8,44.2,30.18,WSW,257,0.0,0.0,65,0.00,CLR,,0.00,0.0,WeatherDisplay:10.37,2016-02-12 10:19:00,
2016-02-12 02:24:00,56.2,44.6,30.17,WSW,257,1.0,2.0,65,0.00,CLR,CLR,0.00,0.0,WeatherDisplay:10.37,2016-02-12 10:24:00,
2016-02-12 02:29:00,56.8,44.3,30.17,WSW,257,1.3,2.3,63,0.00,CLR,,0.00,0.0,WeatherDisplay:10.37,2016-02-12 10:29:00,
2016-02-12 02:34:00,57.3,44.4,30.17,WSW,257,2.2,3.5,62,0.00,CLR,,0.00,0.0,WeatherDisplay:10.37,2016-02-12 10:34:00,
2016-02-12 02:39:00,57.3,44.4,30.17,WSW,257,1.2,2.3,62,0.00,CLR,,0.00,0.0,WeatherDisplay:10.37,2016-02-12 10:39:00,
2016-02-12 02:44:00,57.3,44.4,30.17,WSW,257,0.0,1.0,62,0.00,CLR,CLR,0.00,0.0,WeatherDisplay:10.37,2016-02-12 10:44:00,
2016-02-12 02:49:00,57.3,44.4,30.17,WSW,257,0.5,1.2,62,0.00,CLR,,0.00,0.0,WeatherDisplay:10.37,2016-02-12 10:49:00,
2016-02-12 02:54:00,57.3,44.4,30.17,WSW,257,1.5,2.3,62,0.00,CLR,,0.00,0.0,WeatherDisplay:10.37,2016-02-12 10:54:00,
2016-02-12 02:59:00,57.2,44.3,30.17,WSW,257,2.2,3.5,62,0.00,CLR,,0.00,0.0,WeatherDisplay:10.37,2016-02-12 10:59:00,
2016-02-12 03:04:00,57.1,44.2,30.17,WSW,257,2.0,3.0,62,0.00,CLR,CLR,0.00,0.0,WeatherDisplay:10.37,2016-02-12 11:04:00,
2016-02-12 03:19:00,56.6,43.7,30.17,WSW,257,0.7,1.2,62,0.00,CLR,,0.00,0.0,WeatherDisplay:10.37,2016-02-12 11:19:00,
2016-02-12 03:24:00,56.5,43.6,30.17,WSW,257,1.0,3.0,62,0.00,CLR,CLR,0.00,0.0,WeatherDisplay:10.37,2016-02-12 11:24:00,
2016-02-12 03:29:00,56.3,43.9,30.17,WSW,257,1.3,2.3,63,0.00,CLR,,0.00,0.0,WeatherDisplay:10.37,2016-02-12 11:29:00,
2016-02-12 03:34:00,56.2,43.8,30.17,WSW,257,0.7,1.2,63,0.00,CLR,,0.00,0.0,WeatherDisplay:10.37,2016-02-12 11:34:00,
2016-02-12 03:39:00,56.1,43.7,30.16,WSW,257,0.0,0.0,63,0.00,CLR,,0.00,0.0,WeatherDisplay:10.37,2016-02-12 11:39:00,
2016-02-12 03:44:00,56.1,43.7,30.17,WSW,257,0.0,0.0,63,0.00,CLR,,0.00,0.0,WeatherDisplay:10.37,2016-02-12 11:44:00,
2016-02-12 03:49:00,56.0,43.6,30.17,WSW,257,0.5,1.2,63,0.00,CLR,,0.00,0.0,WeatherDisplay:10.37,2016-02-12 11:49:00,
2016-02-12 03:54:00,56.0,43.6,30.16,WSW,258,0.9,1.2,63,0.00,CLR,,0.00,0.0,WeatherDisplay:10.37,2016-02-12 11:54:00,
2016-02-12 04:04:00,56.3,43.4,30.16,WSW,241,3.0,5.0,62,0.00,CLR,CLR,0.00,0.0,WeatherDisplay:10.37,2016-02-12 12:04:00,
2016-02-12 04:09:00,56.4,43.5,30.16,SW,230,2.5,3.5,62,0.00,CLR,,0.00,0.0,WeatherDisplay:10.37,2016-02-12 12:09:00,
2016-02-12 04:14:00,56.6,43.3,30.16,SW,232,0.0,1.2,61,0.00,CLR,,0.00,0.0,WeatherDisplay:10.37,2016-02-12 12:14:00,
2016-02-12 04:19:00,56.6,42.9,30.16,SW,232,0.0,0.0,60,0.00,CLR,,0.00,0.0,WeatherDisplay:10.37,2016-02-12 12:19:00,
2016-02-12 04:24:00,56.8,43.1,30.16,SW,232,0.0,1.0,60,0.00,CLR,CLR,0.00,0.0,WeatherDisplay:10.37,2016-02-12 12:24:00,
2016-02-12 04:29:00,57.0,42.8,30.16,SW,232,0.0,0.0,59,0.00,CLR,,0.00,0.0,WeatherDisplay:10.37,2016-02-12 12:29:00,
2016-02-12 04:34:00,57.2,43.0,30.16,SW,232,1.8,2.3,59,0.00,CLR,,0.00,0.0,WeatherDisplay:10.37,2016-02-12 12:34:00,
2016-02-12 04:39:00,57.3,43.1,30.16,SW,232,0.0,1.2,59,0.00,CLR,,0.00,0.0,WeatherDisplay:10.37,2016-02-12 12:39:00,
2016-02-12 04:44:00,57.4,42.7,30.16,SW,232,0.0,0.0,58,0.00,CLR,,0.00,0.0,WeatherDisplay:10.37,2016-02-12 12:44:00,
2016-02-12 04:54:00,57.4,43.2,30.16,SW,231,0.1,1.2,59,0.00,CLR,,0.00,0.0,WeatherDisplay:10.37,2016-02-12 12:54:00,
2016-02-12 04:59:00,57.3,42.2,30.16,SW,232,0.7,1.2,57,0.00,CLR,,0.00,0.0,WeatherDisplay:10.37,2016-02-12 12:59:00,
2016-02-12 05:04:00,57.3,42.6,30.16,SW,231,0.0,0.0,58,0.00,CLR,,0.00,0.0,WeatherDisplay:10.37,2016-02-12 13:04:00,
2016-02-12 05:09:00,57.5,41.9,30.16,SW,232,0.2,0.0,56,0.00,CLR,,0.00,0.0,WeatherDisplay:10.37,2016-02-12 13:09:00,
2016-02-12 05:14:00,57.6,42.0,30.16,SW,232,0.0,2.0,56,0.00,CLR,CLR,0.00,0.0,WeatherDisplay:10.37,2016-02-12 13:14:00,
2016-02-12 05:19:00,57.5,43.3,30.16,WNW,295,4.6,5.0,59,0.00,CLR,,0.00,0.0,WeatherDisplay:10.37,2016-02-12 13:19:00,
2016-02-12 05:24:00,57.3,43.5,30.17,WNW,299,4.5,6.0,60,0.00,CLR,,0.00,0.0,WeatherDisplay:10.37,2016-02-12 13:24:00,
2016-02-12 05:29:00,57.0,43.7,30.17,WNW,298,2.0,3.5,61,0.00,CLR,,0.00,0.0,WeatherDisplay:10.37,2016-02-12 13:29:00,
2016-02-12 05:34:00,56.7,43.4,30.17,WNW,298,1.0,3.0,61,0.00,CLR,CLR,0.00,0.0,WeatherDisplay:10.37,2016-02-12 13:34:00,
2016-02-12 05:39:00,56.3,43.0,30.16,WNW,297,1.5,2.3,61,0.00,CLR,,0.00,0.0,WeatherDisplay:10.37,2016-02-12 13:39:00,
2016-02-12 05:44:00,56.3,43.0,30.17,WNW,299,0.7,3.5,61,0.00,CLR,,0.00,0.0,WeatherDisplay:10.37,2016-02-12 13:44:00,
2016-02-12 05:49:00,56.2,43.3,30.17,WNW,297,2.1,3.5,62,0.00,CLR,,0.00,0.0,WeatherDisplay:10.37,2016-02-12 13:49:00,
2016-02-12 05:54:00,55.9,43.1,30.17,WNW,298,1.6,2.3,62,0.00,CLR,,0.00,0.0,WeatherDisplay:10.37,2016-02-12 13:54:00,
2016-02-12 05:59:00,55.6,42.8,30.17,WNW,287,1.4,3.5,62,0.00,CLR,,0.00,0.0,WeatherDisplay:10.37,2016-02-12 13:59:00,
2016-02-12 06:04:00,55.4,41.3,30.17,West,260,2.3,3.5,59,0.00,CLR,,0.00,0.0,WeatherDisplay:10.37,2016-02-12 14:04:00,
2016-02-12 06:14:00,55.2,42.4,30.17,NW,310,5.0,8.0,62,0.00,CLR,CLR,0.00,0.0,WeatherDisplay:10.37,2016-02-12 14:14:00,
2016-02-12 06:19:00,55.0,42.2,30.18,NW,310,4.1,5.0,62,0.00,CLR,,0.00,0.0,WeatherDisplay:10.37,2016-02-12 14:19:00,
2016-02-12 06:24:00,54.6,42.7,30.18,NW,311,4.1,5.0,64,0.00,CLR,,0.00,0.0,WeatherDisplay:10.37,2016-02-12 14:24:00,
2016-02-12 06:29:00,54.2,42.7,30.18,NW,304,4.7,5.0,65,0.00,CLR,,0.00,0.0,WeatherDisplay:10.37,2016-02-12 14:29:00,
2016-02-12 06:34:00,53.7,42.2,30.18,WSW,257,3.1,3.5,65,0.00,CLR,,0.00,0.0,WeatherDisplay:10.37,2016-02-12 14:34:00,
2016-02-12 06:39:00,53.2,41.7,30.18,WSW,253,2.7,4.6,65,0.00,CLR,,0.00,0.0,WeatherDisplay:10.37,2016-02-12 14:39:00,
2016-02-12 06:44:00,52.8,42.1,30.18,West,268,3.8,4.6,67,0.00,CLR,,0.00,0.0,WeatherDisplay:10.37,2016-02-12 14:44:00,
2016-02-12 06:49:00,52.6,42.3,30.19,WSW,245,4.9,6.9,68,0.00,CLR,,0.00,0.0,WeatherDisplay:10.37,2016-02-12 14:49:00,
2016-02-12 06:54:00,52.5,42.6,30.19,WSW,237,4.9,6.9,69,0.00,CLR,,0.00,0.0,WeatherDisplay:10.37,2016-02-12 14:54:00,
2016-02-12 06:59:00,52.4,42.9,30.18,SW,235,3.0,7.0,70,0.00,CLR,CLR,0.00,0.0,WeatherDisplay:10.37,2016-02-12 14:59:00,
2016-02-12 07:04:00,52.4,42.9,30.19,SW,231,2.0,5.0,70,0.00,CLR,CLR,0.00,0.0,WeatherDisplay:10.37,2016-02-12 15:04:00,
2016-02-12 07:09:00,52.3,43.2,30.19,SW,230,2.3,3.5,71,0.00,CLR,,0.00,7.0,WeatherDisplay:10.37,2016-02-12 15:09:00,
2016-02-12 07:14:00,52.3,43.2,30.18,SW,228,2.5,3.5,71,0.00,FEW,,0.00,9.0,WeatherDisplay:10.37,2016-02-12 15:14:00,
2016-02-12 07:19:00,52.4,43.6,30.18,SW,229,0.9,3.5,72,0.00,FEW,,0.00,12.0,WeatherDisplay:10.37,2016-02-12 15:19:00,
2016-02-12 07:24:00,52.5,43.4,30.18,SW,229,3.0,4.0,71,0.00,BKN,BKN,0.00,16.0,WeatherDisplay:10.37,2016-02-12 15:24:00,
2016-02-12 07:29:00,52.8,43.3,30.19,West,267,3.4,4.0,70,0.00,BKN,,0.00,37.0,WeatherDisplay:10.37,2016-02-12 15:29:00,
2016-02-12 07:34:00,53.2,43.3,30.19,West,267,2.5,3.5,69,0.00,BKN,,0.00,28.0,WeatherDisplay:10.37,2016-02-12 15:34:00,
2016-02-12 07:39:00,53.5,43.6,30.19,West,267,2.7,3.5,69,0.00,BKN,,0.00,21.0,WeatherDisplay:10.37,2016-02-12 15:39:00,
2016-02-12 07:44:00,53.6,44.0,30.19,WNW,289,2.2,3.5,70,0.00,BKN,,0.00,28.0,WeatherDisplay:10.37,2016-02-12 15:44:00,
2016-02-12 07:49:00,53.7,44.1,30.19,WNW,290,0.6,2.3,70,0.00,BKN,,0.00,49.0,WeatherDisplay:10.37,2016-02-12 15:49:00,
2016-02-12 07:54:00,53.9,44.0,30.19,WNW,290,0.0,1.0,69,0.00,BKN,BKN,0.00,46.0,WeatherDisplay:10.37,2016-02-12 15:54:00,
2016-02-12 07:59:00,54.1,44.2,30.19,WNW,290,0.0,1.0,69,0.00,BKN,BKN,0.00,67.0,WeatherDisplay:10.37,2016-02-12 15:59:00,
2016-02-12 08:04:00,54.5,44.9,30.19,WNW,290,0.0,2.0,70,0.00,BKN,BKN,0.00,107.0,WeatherDisplay:10.37,2016-02-12 16:04:00,
2016-02-12 08:09:00,55.1,45.1,30.19,WNW,290,2.3,3.5,69,0.00,BKN,,0.00,181.0,WeatherDisplay:10.37,2016-02-12 16:09:00,
2016-02-12 08:14:00,55.5,44.3,30.20,WNW,289,1.2,2.3,66,0.00,OVC,,0.00,192.0,WeatherDisplay:10.37,2016-02-12 16:14:00,
2016-02-12 08:19:00,55.9,45.1,30.19,WNW,289,0.9,2.0,67,0.00,OVC,,0.00,206.0,WeatherDisplay:10.37,2016-02-12 16:19:00,
2016-02-12 08:24:00,56.7,45.9,30.20,WNW,289,1.8,2.3,67,0.00,OVC,,0.00,151.0,WeatherDisplay:10.37,2016-02-12 16:24:00,
2016-02-12 08:29:00,57.8,46.1,30.20,West,270,1.8,3.5,65,0.00,OVC,,0.00,146.0,WeatherDisplay:10.37,2016-02-12 16:29:00,
2016-02-12 08:34:00,58.8,45.8,30.20,West,270,1.6,2.3,62,0.00,SCT,,0.00,232.0,WeatherDisplay:10.37,2016-02-12 16:34:00,
2016-02-12 08:44:00,61.0,45.7,30.20,WSW,246,3.1,3.5,57,0.00,SCT,,0.00,278.0,WeatherDisplay:10.37,2016-02-12 16:44:00,
2016-02-12 08:49:00,61.7,45.8,30.20,WSW,246,1.6,2.3,56,0.00,SCT,,0.00,299.0,WeatherDisplay:10.37,2016-02-12 16:49:00,
2016-02-12 08:54:00,62.3,45.9,30.20,WSW,246,1.0,2.3,55,0.00,SCT,,0.00,323.0,WeatherDisplay:10.37,2016-02-12 16:54:00,
2016-02-12 08:59:00,63.2,46.3,30.20,WSW,245,0.8,2.3,54,0.00,SCT,,0.00,343.0,WeatherDisplay:10.37,2016-02-12 16:59:00,
2016-02-12 09:04:00,64.5,47.0,30.21,WSW,246,0.0,1.2,53,0.00,SCT,,0.00,357.0,WeatherDisplay:10.37,2016-02-12 17:04:00,
2016-02-12 09:09:00,65.4,47.8,30.21,WSW,246,0.0,1.2,53,0.00,SCT,,0.00,350.0,WeatherDisplay:10.37,2016-02-12 17:09:00,
2016-02-12 09:14:00,65.8,49.7,30.21,WSW,246,0.6,2.3,56,0.00,SCT,,0.00,364.0,WeatherDisplay:10.37,2016-02-12 17:14:00,
2016-02-12 09:19:00,66.3,50.1,30.21,West,281,0.5,3.5,56,0.00,SCT,,0.00,401.0,WeatherDisplay:10.37,2016-02-12 17:19:00,
2016-02-12 09:24:00,66.6,48.9,30.21,West,281,2.6,3.5,53,0.00,CLR,,0.00,411.0,WeatherDisplay:10.37,2016-02-12 17:24:00,
2016-02-12 09:29:00,66.8,48.1,30.21,WNW,282,1.8,3.5,51,0.00,CLR,,0.00,425.0,WeatherDisplay:10.37,2016-02-12 17:29:00,
2016-02-12 09:34:00,66.7,46.9,30.21,WNW,283,1.1,3.0,49,0.00,CLR,,0.00,362.0,WeatherDisplay:10.37,2016-02-12 17:34:00,
2016-02-12 09:39:00,67.0,49.8,30.21,WNW,283,1.2,1.2,54,0.00,CLR,,0.00,392.0,WeatherDisplay:10.37,2016-02-12 17:39:00,
2016-02-12 09:49:00,67.1,48.4,30.21,WNW,283,1.0,3.5,51,0.00,CLR,,0.00,411.0,WeatherDisplay:10.37,2016-02-12 17:49:00,
2016-02-12 09:54:00,67.3,51.1,30.21,WNW,297,0.3,3.5,56,0.00,CLR,,0.00,482.0,WeatherDisplay:10.37,2016-02-12 17:54:00,
2016-02-12 09:59:00,67.7,50.5,30.21,NW,313,1.8,2.3,54,0.00,CLR,,0.00,513.0,WeatherDisplay:10.37,2016-02-12 17:59:00,
2016-02-12 10:04:00,68.1,50.8,30.21,NW,314,1.2,3.5,54,0.00,CLR,,0.00,520.0,WeatherDisplay:10.37,2016-02-12 18:04:00,
2016-02-12 10:09:00,68.5,49.7,30.21,NW,314,0.2,1.2,51,0.00,CLR,,0.00,475.0,WeatherDisplay:10.37,2016-02-12 18:09:00,
2016-02-12 10:14:00,68.8,49.4,30.21,NW,313,1.6,3.5,50,0.00,CLR,,0.00,519.0,WeatherDisplay:10.37,2016-02-12 18:14:00,
2016-02-12 10:19:00,68.9,49.5,30.21,NW,314,0.2,2.3,50,0.00,CLR,,0.00,541.0,WeatherDisplay:10.37,2016-02-12 18:19:00,
2016-02-12 10:24:00,69.1,49.7,30.21,NW,315,3.1,3.1,50,0.00,CLR,,0.00,418.0,WeatherDisplay:10.37,2016-02-12 18:24:00,
2016-02-12 10:29:00,69.1,49.7,30.21,NW,314,0.7,2.0,50,0.00,CLR,,0.00,390.0,WeatherDisplay:10.37,2016-02-12 18:29:00,
2016-02-12 10:34:00,69.1,49.7,30.22,NW,315,1.4,2.3,50,0.00,CLR,,0.00,480.0,WeatherDisplay:10.37,2016-02-12 18:34:00,
2016-02-12 10:39:00,68.9,48.9,30.21,NW,314,0.7,3.5,49,0.00,CLR,,0.00,306.0,WeatherDisplay:10.37,2016-02-12 18:39:00,
2016-02-12 10:44:00,68.7,51.4,30.21,NW,321,1.8,3.5,54,0.00,CLR,,0.00,531.0,WeatherDisplay:10.37,2016-02-12 18:44:00,
2016-02-12 10:49:00,68.6,51.8,30.21,NW,320,0.5,2.3,55,0.00,CLR,,0.00,438.0,WeatherDisplay:10.37,2016-02-12 18:49:00,
2016-02-12 10:54:00,68.6,51.3,30.22,North,355,2.0,4.0,54,0.00,CLR,CLR,0.00,276.0,WeatherDisplay:10.37,2016-02-12 18:54:00,
2016-02-12 10:59:00,68.6,51.8,30.21,NNW,347,0.3,3.5,55,0.00,CLR,,0.00,276.0,WeatherDisplay:10.37,2016-02-12 18:59:00,
2016-02-12 11:04:00,68.8,51.5,30.22,NNW,331,1.4,1.4,54,0.00,CLR,,0.00,540.0,WeatherDisplay:10.37,2016-02-12 19:04:00,
2016-02-12 11:09:00,68.9,50.5,30.22,NNW,333,1.3,2.3,52,0.00,CLR,,0.00,258.0,WeatherDisplay:10.37,2016-02-12 19:09:00,
2016-02-12 11:19:00,68.5,51.2,30.21,NNW,330,1.1,3.5,54,0.00,CLR,,0.00,279.0,WeatherDisplay:10.37,2016-02-12 19:19:00,
2016-02-12 11:24:00,68.3,50.5,30.21,NNW,330,1.1,2.0,53,0.00,CLR,,0.00,392.0,WeatherDisplay:10.37,2016-02-12 19:24:00,
2016-02-12 11:29:00,68.3,50.5,30.21,NW,326,1.7,3.5,53,0.00,CLR,,0.00,468.0,WeatherDisplay:10.37,2016-02-12 19:29:00,
2016-02-12 11:39:00,68.0,50.2,30.21,West,268,1.8,3.5,53,0.00,CLR,,0.00,308.0,WeatherDisplay:10.37,2016-02-12 19:39:00,
2016-02-12 11:44:00,68.1,50.3,30.21,West,270,1.5,3.0,53,0.00,CLR,,0.00,466.0,WeatherDisplay:10.37,2016-02-12 19:44:00,
2016-02-12 11:49:00,68.3,50.5,30.21,West,275,1.2,5.0,53,0.00,CLR,,0.00,462.0,WeatherDisplay:10.37,2016-02-12 19:49:00,
2016-02-12 11:54:00,68.3,49.5,30.21,West,279,3.9,8.1,51,0.00,CLR,,0.00,278.0,WeatherDisplay:10.37,2016-02-12 19:54:00,
2016-02-12 11:59:00,67.9,50.6,30.21,WNW,288,0.4,2.0,54,0.00,CLR,,0.00,338.0,WeatherDisplay:10.37,2016-02-12 19:59:00,
2016-02-12 12:04:00,67.9,50.6,30.21,WNW,287,5.2,7.0,54,0.00,CLR,,0.00,346.0,WeatherDisplay:10.37,2016-02-12 20:04:00,
2016-02-12 12:09:00,67.6,49.9,30.21,WNW,303,5.6,8.1,53,0.00,CLR,,0.00,207.0,WeatherDisplay:10.37,2016-02-12 20:09:00,
2016-02-12 12:14:00,67.4,50.7,30.20,NW,306,1.9,3.5,55,0.00,CLR,,0.00,643.0,WeatherDisplay:10.37,2016-02-12 20:14:00,
2016-02-12 12:19:00,67.3,51.1,30.20,WSW,245,0.0,2.3,56,0.00,CLR,,0.00,292.0,WeatherDisplay:10.37,2016-02-12 20:19:00,
2016-02-12 12:24:00,67.2,51.0,30.20,WNW,291,5.1,6.0,56,0.00,CLR,,0.00,209.0,WeatherDisplay:10.37,2016-02-12 20:24:00,
2016-02-12 12:29:00,66.8,51.1,30.20,WNW,287,2.2,3.5,57,0.00,CLR,,0.00,582.0,WeatherDisplay:10.37,2016-02-12 20:29:00,
2016-02-12 12:34:00,66.9,51.6,30.19,WNW,287,0.9,3.5,58,0.00,CLR,,0.00,441.0,WeatherDisplay:10.37,2016-02-12 20:34:00,
2016-02-12 12:39:00,67.0,52.2,30.19,WNW,287,2.2,3.5,59,0.00,CLR,,0.00,223.0,WeatherDisplay:10.37,2016-02-12 20:39:00,
2016-02-12 12:44:00,67.2,52.4,30.19,West,268,3.3,5.0,59,0.00,CLR,,0.00,336.0,WeatherDisplay:10.37,2016-02-12 20:44:00,
2016-02-12 12:49:00,67.4,52.1,30.19,NW,311,3.0,5.0,58,0.00,CLR,,0.00,424.0,WeatherDisplay:10.37,2016-02-12 20:49:00,
2016-02-12 12:54:00,67.6,52.8,30.18,NW,315,1.4,3.0,59,0.00,CLR,,0.00,529.0,WeatherDisplay:10.37,2016-02-12 20:54:00,
2016-02-12 12:59:00,68.0,52.7,30.18,NW,319,0.9,2.0,58,0.00,CLR,,0.00,515.0,WeatherDisplay:10.37,2016-02-12 20:59:00,
2016-02-12 13:04:00,68.5,52.7,30.18,NW,322,1.2,3.5,57,0.00,CLR,,0.00,392.0,WeatherDisplay:10.37,2016-02-12 21:04:00,
2016-02-12 13:09:00,68.9,53.0,30.18,West,265,0.9,3.5,57,0.00,CLR,,0.00,577.0,WeatherDisplay:10.37,2016-02-12 21:09:00,
2016-02-12 13:19:00,69.8,53.4,30.17,WNW,303,4.3,5.8,56,0.00,CLR,,0.00,675.0,WeatherDisplay:10.37,2016-02-12 21:19:00,
2016-02-12 13:29:00,70.5,53.6,30.17,NW,321,2.4,4.6,55,0.00,CLR,,0.00,635.0,WeatherDisplay:10.37,2016-02-12 21:29:00,
2016-02-12 13:34:00,71.0,53.5,30.17,WNW,292,2.4,4.0,54,0.00,CLR,,0.00,619.0,WeatherDisplay:10.37,2016-02-12 21:34:00,
2016-02-12 13:39:00,71.3,54.3,30.16,NW,324,3.0,5.0,55,0.00,CLR,,0.00,566.0,WeatherDisplay:10.37,2016-02-12 21:39:00,
2016-02-12 13:44:00,71.6,54.1,30.16,NW,316,0.5,3.5,54,0.00,CLR,,0.00,260.0,WeatherDisplay:10.37,2016-02-12 21:44:00,
2016-02-12 13:49:00,71.6,53.6,30.16,NW,326,2.8,4.6,53,0.00,CLR,,0.00,294.0,WeatherDisplay:10.37,2016-02-12 21:49:00,
2016-02-12 13:54:00,71.4,53.4,30.16,NW,326,2.8,3.5,53,0.00,CLR,,0.00,397.0,WeatherDisplay:10.37,2016-02-12 21:54:00,
2016-02-12 13:59:00,71.2,53.2,30.16,West,276,0.1,3.5,53,0.00,CLR,,0.00,359.0,WeatherDisplay:10.37,2016-02-12 21:59:00,
2016-02-12 14:04:00,71.4,53.9,30.16,NW,315,0.4,3.5,54,0.00,CLR,,0.00,534.0,WeatherDisplay:10.37,2016-02-12 22:04:00,
2016-02-12 14:09:00,71.5,53.5,30.16,NW,312,2.3,3.5,53,0.00,CLR,,0.00,475.0,WeatherDisplay:10.37,2016-02-12 22:09:00,
2016-02-12 14:14:00,71.7,53.1,30.15,NW,316,0.5,2.3,52,0.00,CLR,,0.00,288.0,WeatherDisplay:10.37,2016-02-12 22:14:00,
2016-02-12 14:19:00,71.6,53.6,30.15,NW,314,0.8,3.5,53,0.00,CLR,,0.00,297.0,WeatherDisplay:10.37,2016-02-12 22:19:00,
2016-02-12 14:34:00,71.1,53.6,30.15,NW,317,0.2,2.3,54,0.00,CLR,,0.00,482.0,WeatherDisplay:10.37,2016-02-12 22:34:00,
2016-02-12 14:39:00,71.2,53.7,30.15,NW,320,2.2,3.5,54,0.00,CLR,,0.00,425.0,WeatherDisplay:10.37,2016-02-12 22:39:00,
2016-02-12 14:44:00,71.3,53.8,30.15,NW,309,0.9,3.5,54,0.00,CLR,,0.00,490.0,WeatherDisplay:10.37,2016-02-12 22:44:00,
2016-02-12 14:49:00,71.7,54.2,30.15,NW,316,1.3,2.3,54,0.00,CLR,,0.00,441.0,WeatherDisplay:10.37,2016-02-12 22:49:00,
2016-02-12 14:54:00,71.8,53.7,30.15,NW,326,2.0,3.5,53,0.00,CLR,,0.00,350.0,WeatherDisplay:10.37,2016-02-12 22:54:00,
2016-02-12 14:59:00,71.8,53.7,30.15,NW,320,3.3,6.0,53,0.00,CLR,,0.00,281.0,WeatherDisplay:10.37,2016-02-12 22:59:00,
2016-02-12 15:04:00,71.9,53.3,30.15,WNW,293,0.8,4.6,52,0.00,CLR,,0.00,371.0,WeatherDisplay:10.37,2016-02-12 23:04:00,
2016-02-12 15:09:00,71.9,53.3,30.15,NNW,343,2.4,5.8,52,0.00,CLR,,0.00,394.0,WeatherDisplay:10.37,2016-02-12 23:09:00,
2016-02-12 15:14:00,71.8,53.2,30.15,WNW,297,2.2,3.5,52,0.00,CLR,,0.00,376.0,WeatherDisplay:10.37,2016-02-12 23:14:00,
2016-02-12 15:19:00,71.9,53.3,30.15,North,355,2.3,2.3,52,0.00,CLR,,0.00,362.0,WeatherDisplay:10.37,2016-02-12 23:19:00,
2016-02-12 15:24:00,71.9,53.8,30.15,NNW,334,1.6,3.5,53,0.00,CLR,,0.00,322.0,WeatherDisplay:10.37,2016-02-12 23:24:00,
2016-02-12 15:29:00,71.8,53.7,30.15,NNW,334,2.1,3.5,53,0.00,CLR,,0.00,302.0,WeatherDisplay:10.37,2016-02-12 23:29:00,
2016-02-12 15:44:00,71.3,54.8,30.15,North,349,1.7,3.5,56,0.00,CLR,,0.00,367.0,WeatherDisplay:10.37,2016-02-12 23:44:00,
2016-02-12 15:49:00,71.1,55.1,30.15,NW,312,1.2,3.5,57,0.00,CLR,,0.00,374.0,WeatherDisplay:10.37,2016-02-12 23:49:00,
2016-02-12 15:54:00,71.1,54.6,30.15,NW,316,2.5,5.0,56,0.00,CLR,,0.00,346.0,WeatherDisplay:10.37,2016-02-12 23:54:00,
2016-02-12 15:59:00,71.1,54.6,30.15,NW,319,2.6,3.5,56,0.00,CLR,,0.00,279.0,WeatherDisplay:10.37,2016-02-12 23:59:00,
2016-02-12 16:04:00,71.0,55.5,30.15,NW,324,0.5,2.3,58,0.00,CLR,,0.00,209.0,WeatherDisplay:10.37,2016-02-13 00:04:00,
2016-02-12 16:09:00,70.9,55.9,30.15,NW,314,0.5,2.3,59,0.00,CLR,,0.00,199.0,WeatherDisplay:10.37,2016-02-13 00:09:00,
2016-02-12 16:14:00,70.7,55.7,30.16,NW,314,0.8,2.0,59,0.00,CLR,,0.00,186.0,WeatherDisplay:10.37,2016-02-13 00:14:00,
2016-02-12 16:24:00,70.3,56.2,30.16,NW,315,0.0,3.5,61,0.00,CLR,,0.00,125.0,WeatherDisplay:10.37,2016-02-13 00:24:00,
2016-02-12 16:34:00,69.9,56.3,30.16,NW,316,0.6,2.0,62,0.00,CLR,,0.00,156.0,WeatherDisplay:10.37,2016-02-13 00:34:00,
2016-02-12 16:44:00,69.3,54.4,30.16,NW,316,1.4,3.5,59,0.00,CLR,,0.00,116.0,WeatherDisplay:10.37,2016-02-13 00:44:00,
2016-02-12 16:49:00,69.0,53.6,30.16,NW,316,2.5,5.8,58,0.00,CLR,,0.00,111.0,WeatherDisplay:10.37,2016-02-13 00:49:00,
2016-02-12 16:54:00,68.7,53.8,30.16,NW,312,2.6,4.6,59,0.00,CLR,,0.00,91.0,WeatherDisplay:10.37,2016-02-13 00:54:00,
2016-02-12 16:59:00,68.3,53.9,30.16,NW,316,1.0,4.0,60,0.00,CLR,CLR,0.00,93.0,WeatherDisplay:10.37,2016-02-13 00:59:00,
2016-02-12 17:04:00,68.0,54.5,30.16,NW,317,3.0,5.0,62,0.00,CLR,CLR,0.00,79.0,WeatherDisplay:10.37,2016-02-13 01:04:00,
2016-02-12 17:14:00,67.5,54.9,30.16,NW,318,1.0,3.0,64,0.00,CLR,CLR,0.00,47.0,WeatherDisplay:10.37,2016-02-13 01:14:00,
2016-02-12 17:19:00,67.1,54.5,30.17,NW,318,1.6,2.3,64,0.00,CLR,,0.00,35.0,WeatherDisplay:10.37,2016-02-13 01:19:00,
2016-02-12 17:24:00,66.7,54.6,30.17,NW,318,2.8,3.5,65,0.00,CLR,,0.00,26.0,WeatherDisplay:10.37,2016-02-13 01:24:00,
2016-02-12 17:29:00,66.2,54.1,30.17,WNW,283,5.3,8.0,65,0.00,CLR,,0.00,18.0,WeatherDisplay:10.37,2016-02-13 01:29:00,
2016-02-12 17:34:00,65.5,54.3,30.17,WNW,289,5.0,10.0,67,0.00,CLR,CLR,0.00,12.0,WeatherDisplay:10.37,2016-02-13 01:34:00,
2016-02-12 17:39:00,64.8,54.0,30.17,West,276,7.4,8.1,68,0.00,CLR,,0.00,7.0,WeatherDisplay:10.37,2016-02-13 01:39:00,
2016-02-12 17:44:00,64.3,53.9,30.17,WNW,289,7.4,12.0,69,0.00,CLR,,0.00,5.0,WeatherDisplay:10.37,2016-02-13 01:44:00,
2016-02-12 17:54:00,63.5,53.5,30.17,WNW,293,6.0,8.0,70,0.00,CLR,CLR,0.00,0.0,WeatherDisplay:10.37,2016-02-13 01:54:00,
2016-02-12 17:59:00,63.1,53.6,30.17,WNW,301,5.0,7.0,71,0.00,CLR,CLR,0.00,0.0,WeatherDisplay:10.37,2016-02-13 01:59:00,
2016-02-12 18:04:00,62.8,53.2,30.17,WNW,291,6.0,8.0,71,0.00,CLR,CLR,0.00,0.0,WeatherDisplay:10.37,2016-02-13 02:04:00,
2016-02-12 18:09:00,62.3,53.2,30.17,WNW,293,8.4,10.4,72,0.00,CLR,,0.00,0.0,WeatherDisplay:10.37,2016-02-13 02:09:00,
2016-02-12 18:19:00,61.7,53.0,30.17,WNW,295,7.5,10.4,73,0.00,CLR,,0.00,0.0,WeatherDisplay:10.37,2016-02-13 02:19:00,
2016-02-12 18:24:00,61.5,52.8,30.17,West,280,9.2,11.5,73,0.00,CLR,,0.00,0.0,WeatherDisplay:10.37,2016-02-13 02:24:00,
2016-02-12 18:29:00,61.3,52.9,30.17,WNW,295,6.9,9.0,74,0.00,CLR,,0.00,0.0,WeatherDisplay:10.37,2016-02-13 02:29:00,
2016-02-12 18:34:00,61.1,52.7,30.17,WNW,288,7.5,9.2,74,0.00,CLR,,0.00,0.0,WeatherDisplay:10.37,2016-02-13 02:34:00,
2016-02-12 18:39:00,60.9,52.9,30.17,WNW,303,5.3,9.2,75,0.00,CLR,,0.00,0.0,WeatherDisplay:10.37,2016-02-13 02:39:00,
2016-02-12 18:44:00,60.8,52.8,30.17,WNW,288,8.0,10.0,75,0.00,CLR,CLR,0.00,0.0,WeatherDisplay:10.37,2016-02-13 02:44:00,
2016-02-12 18:49:00,60.6,52.6,30.17,NW,307,9.3,10.4,75,0.00,CLR,,0.00,0.0,WeatherDisplay:10.37,2016-02-13 02:49:00,
2016-02-12 18:54:00,60.5,52.5,30.17,West,280,6.7,9.2,75,0.00,CLR,,0.00,0.0,WeatherDisplay:10.37,2016-02-13 02:54:00,
2016-02-12 18:59:00,60.3,52.3,30.17,NW,305,6.8,10.4,75,0.00,CLR,,0.00,0.0,WeatherDisplay:10.37,2016-02-13 02:59:00,
2016-02-12 19:04:00,60.3,52.7,30.17,WNW,293,3.0,10.0,76,0.00,CLR,CLR,0.00,0.0,WeatherDisplay:10.37,2016-02-13 03:04:00,
2016-02-12 19:09:00,60.1,52.5,30.17,WNW,302,5.8,9.2,76,0.00,CLR,,0.00,0.0,WeatherDisplay:10.37,2016-02-13 03:09:00,
2016-02-12 19:14:00,60.0,52.4,30.17,WNW,295,3.0,7.0,76,0.00,CLR,CLR,0.00,0.0,WeatherDisplay:10.37,2016-02-13 03:14:00,
2016-02-12 19:19:00,59.9,52.3,30.17,WNW,295,5.0,5.0,76,0.00,CLR,,0.00,0.0,WeatherDisplay:10.37,2016-02-13 03:19:00,
2016-02-12 19:24:00,59.8,52.2,30.17,WNW,290,6.0,10.0,76,0.00,CLR,CLR,0.00,0.0,WeatherDisplay:10.37,2016-02-13 03:24:00,
2016-02-12 19:29:00,59.8,52.2,30.17,WNW,302,8.2,10.4,76,0.00,CLR,,0.00,0.0,WeatherDisplay:10.37,2016-02-13 03:29:00,
2016-02-12 19:34:00,59.9,52.3,30.17,WNW,285,9.0,12.0,76,0.00,CLR,CLR,0.00,0.0,WeatherDisplay:10.37,2016-02-13 03:34:00,
2016-02-12 19:39:00,59.9,52.3,30.17,WNW,291,7.4,9.2,76,0.00,CLR,,0.00,0.0,WeatherDisplay:10.37,2016-02-13 03:39:00,
2016-02-12 19:44:00,59.9,52.3,30.17,West,273,5.0,9.0,76,0.00,CLR,CLR,0.00,0.0,WeatherDisplay:10.37,2016-02-13 03:44:00,
2016-02-12 19:49:00,59.8,52.2,30.17,West,265,5.8,9.2,76,0.00,CLR,,0.00,0.0,WeatherDisplay:10.37,2016-02-13 03:49:00,
2016-02-12 19:54:00,59.8,52.2,30.17,West,269,5.0,9.0,76,0.00,CLR,CLR,0.00,0.0,WeatherDisplay:10.37,2016-02-13 03:54:00,
2016-02-12 19:59:00,59.7,52.2,30.18,West,276,7.0,9.0,76,0.00,CLR,CLR,0.00,0.0,WeatherDisplay:10.37,2016-02-13 03:59:00,
2016-02-12 20:04:00,59.7,52.1,30.18,West,271,5.0,7.0,76,0.00,CLR,CLR,0.00,0.0,WeatherDisplay:10.37,2016-02-13 04:04:00,
2016-02-12 20:09:00,59.6,52.0,30.18,WSW,251,4.1,8.1,76,0.00,CLR,,0.00,0.0,WeatherDisplay:10.37,2016-02-13 04:09:00,
2016-02-12 20:14:00,59.6,52.0,30.18,West,278,3.2,5.8,76,0.00,CLR,,0.00,0.0,WeatherDisplay:10.37,2016-02-13 04:14:00,
2016-02-12 20:19:00,59.5,51.9,30.18,West,260,4.3,6.9,76,0.00,CLR,,0.00,0.0,WeatherDisplay:10.37,2016-02-13 04:19:00,
2016-02-12 20:24:00,59.4,52.2,30.18,West,269,7.0,9.0,77,0.00,CLR,CLR,0.00,0.0,WeatherDisplay:10.37,2016-02-13 04:24:00,
2016-02-12 20:29:00,59.3,52.1,30.18,WNW,287,5.2,8.1,77,0.00,CLR,,0.00,0.0,WeatherDisplay:10.37,2016-02-13 04:29:00,
2016-02-12 20:34:00,59.3,52.1,30.18,WNW,287,6.0,9.0,77,0.00,CLR,CLR,0.00,0.0,WeatherDisplay:10.37,2016-02-13 04:34:00,
2016-02-12 20:39:00,59.3,52.1,30.18,WNW,289,3.6,3.6,77,0.00,CLR,,0.00,0.0,WeatherDisplay:10.37,2016-02-13 04:39:00,
2016-02-12 20:44:00,59.1,52.2,30.18,WNW,283,3.9,4.6,78,0.00,CLR,,0.00,0.0,WeatherDisplay:10.37,2016-02-13 04:44:00,
2016-02-12 20:49:00,59.0,52.1,30.18,WNW,291,3.3,3.5,78,0.00,CLR,,0.00,0.0,WeatherDisplay:10.37,2016-02-13 04:49:00,
2016-02-12 20:54:00,58.9,52.1,30.18,WNW,288,1.0,3.0,78,0.00,CLR,CLR,0.00,0.0,WeatherDisplay:10.37,2016-02-13 04:54:00,
2016-02-12 20:59:00,58.7,51.9,30.18,WNW,290,0.0,2.0,78,0.00,CLR,CLR,0.00,0.0,WeatherDisplay:10.37,2016-02-13 04:59:00,
2016-02-12 21:04:00,58.6,51.7,30.18,WNW,290,1.0,3.0,78,0.00,CLR,CLR,0.00,0.0,WeatherDisplay:10.37,2016-02-13 05:04:00,
2016-02-12 21:14:00,58.0,51.9,30.19,NNW,330,3.0,5.0,80,0.00,CLR,CLR,0.00,0.0,WeatherDisplay:10.37,2016-02-13 05:14:00,
2016-02-12 21:19:00,57.8,51.7,30.19,NW,309,1.0,3.5,80,0.00,CLR,,0.00,0.0,WeatherDisplay:10.37,2016-02-13 05:19:00,